Weather History for Stevensville, MD

Change the Weather History Date:

Monday, May 27, 2013

  Actual Average (KESN) Record (KESN)
Temperature  
Mean Temperature 62 °F -  
Max Temperature 69 °F 75 °F 94 °F (1965)
Min Temperature 55 °F 52 °F 42 °F (1961)
Degree Days  
Heating Degree Days 3    
Growing Degree Days 12 (Base 50)    
Moisture  
Dew Point 42 °F    
Average Humidity 47    
Maximum Humidity 72    
Minimum Humidity 28    
Precipitation  
Precipitation 0.00 in - - ()
Sea Level Pressure  
Sea Level Pressure 30.23 in    
Wind  
Wind Speed 3 mph (ENE)    
Max Wind Speed 8 mph    
Max Gust Speed -    
Visibility 10 miles    
Events      
Averages and records for this station are not official NWS values.
T = Trace of Precipitation, MM = Missing Value Source: NWS Daily Summary

Daily Weather History Graph

Daily Weather History Graph

Search for Another Location

Airport:

Trip Planner

Search our weather history database for the weather conditions in past years. The results will help you decide how hot, cold, wet, or windy it might be!

Date:

Astronomy

May. 27, 2013 Rise Set
Actual Time 5:43 AM EDT 8:21 PM EDT
Civil Twilight 5:12 AM EDT 8:52 PM EDT
Nautical Twilight 4:34 AM EDT 9:31 PM EDT
Astronomical Twilight 3:50 AM EDT 10:15 PM EDT
Moon 10:59 PM EDT (5/27) 8:18 AM EDT (5/27)
Length of Visible Light 15h 39m
Length of Day
14h 37m
Waning Gibbous, 91% of the Moon is Illuminated
May 27
Waning Gibbous
May 31
Last Quarter
Jun 8
New
Jun 16
First Quarter
Jun 23
Full

Hourly Weather History & Observations

Time (EDT) Temp. Dew Point Humidity Pressure Visibility Wind Dir Wind Speed Gust Speed Precip Events Conditions
12:12 AM 60.8 °F 48.2 °F 63% 30.21 in 10.0 mi Calm Calm - N/A   Clear
12:32 AM 59.0 °F 48.2 °F 67% 30.22 in 10.0 mi Calm Calm - N/A   Clear
12:52 AM 59.0 °F 46.4 °F 63% 30.22 in 10.0 mi Calm Calm - N/A   Clear
1:12 AM 59.0 °F 44.6 °F 59% 30.21 in 10.0 mi Calm Calm - N/A   Clear
1:32 AM 59.0 °F 44.6 °F 59% 30.22 in 10.0 mi West 3.5 mph - N/A   Clear
1:52 AM 60.8 °F 42.8 °F 52% 30.23 in 10.0 mi WNW 5.8 mph - N/A   Clear
2:12 AM 60.8 °F 41.0 °F 48% 30.23 in 10.0 mi WNW 8.1 mph - N/A   Clear
2:32 AM 59.0 °F 42.8 °F 55% 30.23 in 10.0 mi NW 6.9 mph - N/A   Clear
2:52 AM 59.0 °F 44.6 °F 59% 30.23 in 10.0 mi NNW 6.9 mph - N/A   Clear
3:12 AM 59.0 °F 44.6 °F 59% 30.23 in 10.0 mi North 5.8 mph - N/A   Clear
3:32 AM 59.0 °F 44.6 °F 59% 30.23 in 10.0 mi North 6.9 mph - N/A   Clear
3:52 AM 55.4 °F 42.8 °F 63% 30.23 in 10.0 mi NE 6.9 mph - N/A   Clear
4:12 AM 57.2 °F 42.8 °F 59% 30.23 in 10.0 mi ENE 6.9 mph - N/A   Clear
4:32 AM 55.4 °F 41.0 °F 58% 30.24 in 10.0 mi ENE 8.1 mph - N/A   Clear
4:52 AM 55.4 °F 41.0 °F 58% 30.24 in 10.0 mi ENE 5.8 mph - N/A   Clear
5:12 AM 55.4 °F 41.0 °F 58% 30.25 in 10.0 mi East 6.9 mph - N/A   Clear
5:33 AM 55.4 °F 41.0 °F 58% 30.25 in 10.0 mi ENE 6.9 mph - N/A   Clear
5:53 AM 55.4 °F 39.2 °F 54% 30.25 in 10.0 mi ENE 4.6 mph - N/A   Clear
6:13 AM 55.4 °F 41.0 °F 58% 30.26 in 10.0 mi NE 3.5 mph - N/A   Clear
6:33 AM 55.4 °F 41.0 °F 58% 30.26 in 10.0 mi Calm Calm - N/A   Clear
6:53 AM 57.2 °F 41.0 °F 55% 30.26 in 10.0 mi Calm Calm - N/A   Clear
7:13 AM 59.0 °F 41.0 °F 51% 30.27 in 10.0 mi Calm Calm - N/A   Clear
7:33 AM 59.0 °F 41.0 °F 51% 30.27 in 10.0 mi Calm Calm - N/A   Clear
7:53 AM 59.0 °F 39.2 °F 48% 30.27 in 10.0 mi ENE 3.5 mph - N/A   Clear
8:13 AM 60.8 °F 37.4 °F 42% 30.28 in 10.0 mi Calm Calm - N/A   Clear
8:33 AM 62.6 °F 37.4 °F 39% 30.28 in 10.0 mi NE 3.5 mph - N/A   Clear
8:53 AM 62.6 °F 37.4 °F 39% 30.29 in 10.0 mi ESE 3.5 mph - N/A   Clear
9:13 AM 64.4 °F 33.8 °F 32% 30.28 in 10.0 mi East 5.8 mph - N/A   Clear
9:33 AM 64.4 °F 35.6 °F 34% 30.28 in 10.0 mi East 3.5 mph - N/A   Clear
9:53 AM 64.4 °F 33.8 °F 32% 30.28 in 10.0 mi ESE 3.5 mph - N/A   Clear
10:13 AM 66.2 °F 33.8 °F 30% 30.28 in 10.0 mi SE 4.6 mph - N/A   Clear
10:33 AM 68.0 °F 35.6 °F 30% 30.28 in 10.0 mi Calm Calm - N/A   Clear
10:53 AM 68.0 °F 35.6 °F 30% 30.28 in 10.0 mi Calm Calm - N/A   Clear
11:13 AM 68.0 °F 41.0 °F 37% 30.28 in 10.0 mi WNW 6.9 mph - N/A   Clear
11:33 AM 66.2 °F 42.8 °F 43% 30.27 in 10.0 mi NW 4.6 mph - N/A   Clear
11:53 AM 66.2 °F 41.0 °F 40% 30.28 in 10.0 mi NW 5.8 mph - N/A   Clear
12:13 PM 68.0 °F 41.0 °F 37% 30.27 in 10.0 mi WNW 4.6 mph - N/A   Clear
12:33 PM 66.2 °F 39.2 °F 37% 30.26 in 10.0 mi WNW 4.6 mph - N/A   Clear
12:53 PM 68.0 °F 41.0 °F 37% 30.26 in 10.0 mi WNW 4.6 mph - N/A   Clear
1:13 PM 68.0 °F 41.0 °F 37% 30.26 in 10.0 mi WNW 4.6 mph - N/A   Clear
1:33 PM 68.0 °F 42.8 °F 40% 30.26 in 10.0 mi Calm Calm - N/A   Clear
1:53 PM 68.0 °F 41.0 °F 37% 30.25 in 10.0 mi West 3.5 mph - N/A   Clear
2:14 PM 69.8 °F 39.2 °F 33% 30.24 in 10.0 mi Calm Calm - N/A   Clear
2:34 PM 69.8 °F 35.6 °F 28% 30.24 in 10.0 mi Calm Calm - N/A   Clear
2:54 PM 69.8 °F 37.4 °F 31% 30.23 in 10.0 mi Calm Calm - N/A   Clear
3:14 PM 69.8 °F 37.4 °F 31% 30.22 in 10.0 mi South 3.5 mph - N/A   Clear
3:34 PM 69.8 °F 37.4 °F 31% 30.22 in 10.0 mi SSE 3.5 mph - N/A   Clear
3:54 PM 69.8 °F 39.2 °F 33% 30.22 in 10.0 mi South 3.5 mph - N/A   Clear
4:14 PM 69.8 °F 41.0 °F 35% 30.21 in 10.0 mi South 3.5 mph - N/A   Clear
4:34 PM 69.8 °F 41.0 °F 35% 30.20 in 10.0 mi SSE 3.5 mph - N/A   Clear
4:54 PM 69.8 °F 41.0 °F 35% 30.20 in 10.0 mi SSE 4.6 mph - N/A   Clear
5:14 PM 69.8 °F 37.4 °F 31% 30.20 in 10.0 mi Calm Calm - N/A   Clear
5:34 PM 69.8 °F 41.0 °F 35% 30.19 in 10.0 mi Calm Calm - N/A   Clear
5:54 PM 69.8 °F 42.8 °F 38% 30.20 in 10.0 mi Calm Calm - N/A   Clear
6:14 PM 68.0 °F 44.6 °F 43% 30.19 in 10.0 mi Calm Calm - N/A   Clear
6:34 PM 68.0 °F 42.8 °F 40% 30.19 in 10.0 mi Calm Calm - N/A   Clear
6:54 PM 68.0 °F 42.8 °F 40% 30.19 in 10.0 mi Calm Calm - N/A   Clear
7:14 PM 68.0 °F 48.2 °F 49% 30.19 in 10.0 mi Calm Calm - N/A   Clear
7:34 PM 68.0 °F 46.4 °F 46% 30.19 in 10.0 mi South 4.6 mph - N/A   Clear
7:54 PM 66.2 °F 50.0 °F 56% 30.19 in 10.0 mi Calm Calm - N/A   Clear
8:14 PM 66.2 °F 48.2 °F 52% 30.20 in 10.0 mi South 3.5 mph - N/A   Clear
8:34 PM 66.2 °F 48.2 °F 52% 30.20 in 10.0 mi Calm Calm - N/A   Clear
8:54 PM 64.4 °F 46.4 °F 52% 30.19 in 10.0 mi South 3.5 mph - N/A   Clear
9:14 PM 64.4 °F 48.2 °F 56% 30.20 in 10.0 mi Calm Calm - N/A   Clear
9:34 PM 64.4 °F 46.4 °F 52% 30.19 in 10.0 mi South 3.5 mph - N/A   Clear
9:54 PM 64.4 °F 46.4 °F 52% 30.20 in 10.0 mi South 3.5 mph - N/A   Clear
10:14 PM 64.4 °F 46.4 °F 52% 30.21 in 10.0 mi Calm Calm - N/A   Clear
10:34 PM 64.4 °F 46.4 °F 52% 30.21 in 10.0 mi Calm Calm - N/A   Clear
10:54 PM 62.6 °F 46.4 °F 55% 30.22 in 10.0 mi Calm Calm - N/A   Clear
11:15 PM 62.6 °F 51.8 °F 68% 30.22 in 10.0 mi Calm Calm - N/A   Clear
11:35 PM 62.6 °F 53.6 °F 72% 30.21 in 10.0 mi Calm Calm - N/A   Clear
11:55 PM 62.6 °F 51.8 °F 68% 30.21 in 10.0 mi Calm Calm - N/A   Clear